www.pogodaiklimat.ru

Архив погоды в Череповце (Вологодская область, Россия)

Время
(UTC), дата
00 28.06
03 28.06
06 28.06
09 28.06
12 28.06
15 28.06
18 28.06
21 28.06
00 29.06
03 29.06
06 29.06
09 29.06
12 29.06
15 29.06
18 29.06
21 29.06
00 30.06
03 30.06
06 30.06
09 30.06
12 30.06
15 30.06
18 30.06
21 30.06
00 1.07
03 1.07
06 1.07
09 1.07
12 1.07
15 1.07
18 1.07
21 1.07
00 2.07
03 2.07
06 2.07
09 2.07
12 2.07
15 2.07
18 2.07
21 2.07
00 3.07
03 3.07
06 3.07
09 3.07
12 3.07
15 3.07
18 3.07
21 3.07
00 4.07
03 4.07
06 4.07
09 4.07
12 4.07
15 4.07
18 4.07
21 4.07
Ветер
(напр.,м/с)
Видим. Явления Облачность Т
(С)
Тd
(С)
f
(%)
Тe
(С)
Тes
(С)
Комфортность P
(гПа)
Po
(гПа)
Тmin
(С)
Tmax
(С)
R
(мм)
R24
(мм)
S
(см)
СВ 1 10 км 3/0
[Ci fib]
+11.8 +7.9 77 +12 +12 тепло 1023.2 1008.9
В 2 10 км 8/0
[Ci]
+11.4 +8.8 84 +10 +12 по сезону 1025.3 1011.0 +9.5
СВ 3 10 км 4/3 1000 м
[Sc Ci fib]
+15.9 +7.7 58 +16 +21 тепло 1025.7 1011.6
СВ 3 10 км 3/1 1000 м
[Sc Ci fib]
+17.8 +7.3 50 +18 +28 тепло 1025.7 1011.7
СВ 4 10 км 3/1 1500 м
[Sc Ci fib]
+19.4 +7.0 44 +20 +27 тепло 1025.0 1011.1
В 3 10 км ясно +19.2 +6.4 43 +20 +23 тепло 1024.5 1010.6 +20.1
СВ 1 10 км ясно +12.5 +8.0 74 +13 +13 тепло 1024.8 1010.5
штиль 0 10 км местами туман поземный ясно +7.7 +7.3 97 +7 +7 по сезону 1025.4 1010.9
штиль 0 10 км местами туман поземный ясно +6.2 +5.8 97 +5 +5 по сезону 1026.5 1011.9
СВ 1 10 км ясно +11.3 +8.5 83 +11 +13 тепло 1026.6 1012.3 +5.3
штиль 0 10 км 1/0
[Ci fib]
+17.1 +5.6 47 +17 +29 опасность
простуды
1025.5 1011.5
СВ 3 10 км 1/0
[Ci fib]
+19.5 +5.5 40 +20 +32 тепло 1024.5 1010.6
В 2 10 км 3/0
[Ci fib]
+21.0 +4.7 34 +22 +33 комфорт 1023.1 1009.2
В 2 10 км 6/0
[Ac trans Ci fib]
+21.3 +7.4 41 +22 +25 комфорт 1021.0 1007.3 +22.6
штиль 0 10 км 8/0
[Ac trans Ci fib]
+13.5 +10.6 83 +13 +13 тепло 1020.5 1006.4
штиль 0 10 км местами туман поземный 4/3 600 м
[Sc Ci fib]
+8.4 +8.2 99 +7 +7 по сезону 1020.9 1006.5
штиль 0 10 км местами туман поземный 4/0
[Ci fib]
+6.7 +6.5 99 +6 +6 холодно 1020.6 1006.1
С 1 10 км 4/0
[Ac trans Ci fib]
+13.6 +11.0 84 +14 +15 по сезону 1019.9 1005.8 +6.5
С 3 10 км 4/0
[Ac trans Ci fib]
+19.1 +11.7 62 +20 +26 тепло 1019.0 1005.2
С 5
{11}
10 км 8/4 1000 м
[Cu med, cong Ac trans Ci fib]
+22.4 +6.1 35 +23 +26 комфорт 1018.5 1004.8
СВ 5
{11}
10 км 8/3 1000 м
[Cu med, cong Ac trans Ci fib]
+23.0 +9.3 42 +25 +27 комфорт 1018.1 1004.5
С 5
{10}
10 км 3/3 1000 м
[Sc diur, vesp]
+23.5 +10.0 42 +25 +26 комфорт 1017.1 1003.6 +23.9
штиль 0 10 км 3/0
[Ac trans]
+19.3 +12.8 66 +20 +21 тепло 1017.2 1003.4
штиль 0 10 км 4/0
[Ac trans]
+14.0 +12.0 88 +14 +14 по сезону 1018.6 1004.5
В 2 10 км 4/0
[Ac trans]
+10.1 +8.7 91 +9 +9 по сезону 1020.5 1006.2
В 1 10 км 3/0
[Ci fib]
+14.0 +8.4 69 +14 +16 по сезону 1021.5 1007.4 +9.1
В 3 10 км 3/0
[Ci fib]
+17.3 +5.0 44 +17 +24 по сезону 1022.9 1008.9
В 3 10 км 1/0
[Ci fib]
+19.1 +6.0 42 +20 +31 тепло 1023.3 1009.4
В 3 10 км 4/0
[Ci fib]
+21.3 +8.4 44 +22 +31 комфорт 1022.7 1008.9
В 2 10 км 4/0
[Ci fib]
+21.7 +6.9 38 +22 +26 комфорт 1022.2 1008.4 +22.1
штиль 0 10 км 3/0
[Ci fib]
+14.5 +10.9 79 +14 +14 прохладно 1022.7 1008.5
штиль 0 10 км местами туман поземный 4/0
[Ci fib]
+9.7 +9.5 99 +9 +9 холодно 1023.0 1008.6
штиль 0 10 км местами туман поземный 6/0
[Ac trans Ci fib]
+7.6 +7.4 99 +7 +7 прохладно 1023.3 1008.8
З 1 10 км 8/0
[Ac trans Ci fib]
+12.5 +9.1 80 +13 +14 по сезону 1023.0 1008.7 +7.2
З 4 10 км 4/3 1000 м
[Cu hum Ac trans]
+20.5 +10.2 52 +22 +26 комфорт 1021.5 1007.6
З 4 10 км 4/3 1000 м
[Cu med, cong Ci fib]
+25.4 +11.5 42 +27 +33 жарко 1019.8 1006.3
СЗ 4 10 км 4/3 1000 м
[Cu med, cong Ci fib]
+27.9 +13.7 42 +30 +35 жарко 1017.7 1004.3
С 3 10 км 6/3 1000 м
[Cu med, cong Ci fib]
+28.5 +15.7 46 +32 +33 душно 1015.7 1002.4 +29.5
С 2 10 км 4/1 1000 м
[Sc diur, vesp Ac trans Ci fib]
+21.8 +15.5 67 +25 +25 комфорт 1016.0 1002.4
С 1 10 км 3/0
[Ci fib]
+15.4 +12.9 85 +16 +16 тепло 1017.0 1003.0
штиль 0 10 км 3/0
[Ci fib]
+13.1 +11.2 88 +13 +13 тепло 1017.6 1003.5
штиль 0 10 км ясно +17.4 +13.1 76 +17 +20 тепло 1017.3 1003.4 +11.1
СВ 3 10 км 1/0
[Ci fib]
+22.6 +14.9 62 +26 +33 жарко 1016.6 1003.0
С 3 10 км 3/0
[Ci fib]
+25.0 +12.6 46 +27 +38 жарко 1016.7 1003.2
С 4 10 км 3/0
[Ci fib]
+26.7 +11.1 38 +28 +35 жарко 1015.7 1002.3
СВ 2 10 км 4/0
[Ci fib]
+26.4 +14.8 49 +29 +32 жарко 1015.1 1001.7 +27.6
штиль 0 10 км 6/0
[Ci fib]
+18.6 +15.4 82 +19 +19 тепло 1016.1 1002.4
штиль 0 10 км 8/0
[Ac trans Ci fib]
+14.8 +14.6 99 +14 +14 по сезону 1016.3 1002.4
штиль 0 10 км местами туман поземный 9/0
[Ac trans Ci fib]
+13.0 +12.8 99 +12 +12 по сезону 1016.3 1002.3
штиль 0 10 км 4/0
[Ci fib]
+17.7 +15.1 85 +18 +20 тепло 1016.7 1002.8 +12.4
штиль 2 10 км 1/0
[Ci fib]
+25.6 +16.0 55 +29 +37 душно 1016.2 1002.7
ЮВ 1 10 км 4/4 1000 м
[Cu med, cong]
+27.4 +15.7 49 +30 +40 жарко 1015.7 1002.3
Ю 3 10 км гроза без осадков 6/4 1000 м
[Cb cap Ac trans]
+29.0 +15.8 45 +32 +36 душно 1014.3 1001.0
Ю 3 10 км в посл. час гроза 8/4 1000 м
[Cb calv Ac trans]
+27.3 +15.0 47 +30 +31 душно 1013.6 1000.2 +29.4
штиль 0 10 км {гроза} 8/4 1000 м
[Cb calv Ac trans Ci fib]
+20.1 +17.8 87 +23 +23 комфорт 1014.1 1000.5
штиль 0 10 км местами туман поземный 8/4 1000 м
[Cb calv Ac trans Ci fib]
+16.9 +16.7 99 +17 +17 тепло 1014.5 1000.7
Местоположение метеостанции Череповец (Вологодская область, Россия): широта 59.25 долгота 37.97 высота над уровнем моря 117 м.
В архиве по умолчанию представлена погода в Череповце за последнюю неделю. Архивные данные за месяц целиком и за предыдущие месяцы, начиная с января 2011 года, Вы можете получить, выбрав интересующий диапазон дат из раскрывающегося списка и нажав кнопку "Найти!".
*Определитесь, кто Вы:
Внимание! Время в таблицах - всемирное. Для получения местного времени необходимо прибавить поправку, которая равна 3 ч.
Смотрите также архив погоды в соседних городах и на ближайших метеорологических станциях:
Партнеры нашего сайта:      
Пояснения к столбцам:
  • Ветер - указаны скорость ветра в м/с - средняя за 10 мин, порывы в срок и между сроками (в фигурных скобках) и направление, откуда дует ветер: С - северный,
  • СВ - северо-восточный, В - восточный, ЮВ - юго-восточный, Ю - южный, ЮЗ - юго-западный, З - западный, СЗ - северо-западный.
  • Видимость - горизонтальная дальность видимости в метрах или километрах. При видимости от 1 до 10 км при отсутствии осадков обычно наблюдается дымка, при ухудшении видимости до 1 км и менее - туман. В сухую погоду видимость может ухудшаться дымом, пылью или мглою.
  • Явления - указаны атмосферные явления, наблюдавшиеся в срок или в последний час перед сроком; фигурными скобками обозначены явления, наблюдавшиеся между сроками (за 1-3 часа до срока); квадратными скобками обозначены град или гололедные отложения с указанием их диаметра в мм.
  • Облачность - указаны через наклонную черту общая и нижняя облачность в баллах и высота нижней границы облаков в метрах; квадратными скобками обозначены формы облаков: Ci - перистые, Cs - перисто-слоистые, Cc - перисто-кучевые, Ac - высококучевые, As - высокослоистые, Sc - слоисто-кучевые, Ns - слоисто-дождевые, Cu - кучевые, Cb - кучево-дождевые. Подробнее классификацию облаков см. в Атласе облаков (PDF).
  • T - Температура воздуха - температура, измеренная на высоте 2 м над землей.
  • Td - Температура точки росы - температура, при понижении до которой содержащийся в воздухе водяной пар достигнет насыщения.
  • f - Относительная влажность воздуха - влажноcть воздуха, измеренная на высоте 2 м над землей.
  • Te - Эффективная температура - температура, которую ощущает одетый по сезону человек в тени. Характеристика душности погоды. При расчете учитывается влияние влажности воздуха и скорости ветра на теплоощущения человека.
  • Tes - Эффективная температура на солнце - температура, которую ощущает человек, с поправкой на солнечный нагрев. Характеристика знойности погоды. Зависит от высоты солнца над горизонтом, облачности и скорости ветра. Ночью, в пасмурную погоду, а также при ветре 12 м/с и более поправка равна нулю.
  • P - Атмосферное давление - приведенное к уровню моря атмосферное давление.
  • Po - Атмосферное давление - измеренное на уровне метеостанции атмосферное давление.
  • Tmin - Минимальная температура - минимум температуры воздуха на высоте 2 м над землей.
  • Tmax - Максимальная температура - максимум температуры воздуха на высоте 2 м над землей.
  • R - Количество осадков - Количество выпавших осадков за период времени, мм. При наведении курсора мыши на число - период времени, за который выпало указанное количество осадков.
  • R24 - Количество осадков - Количество выпавших осадков за 24 часа, мм.
  • S - Снежный покров - Высота снежного покрова, см. При наведении курсора мыши на число - состояние снежного покрова и степень покрытия местности в баллах.